Погода в Волжском

Россия / Астраханская область     46°38′57″N   47°51′37″E
темп.,
°C
ветер,
м/с
пор.,
м/с
влажн.,
%
обл.,
%
осадки,
мм/ч
давл.,
гПа
погр.,
м
9 мая, вс
вс901:00+15ююв4852100 0.0 1015231
04:00+14юв49585 0.0 1014178
07:00+16юв6136862 0.0 1013524
10:00+22ююв91235100 0.0 10111257
13:00+24ююв91135100 0.0 10101884
16:00+23ююв101238100 0.0 10101422
19:00+22ююв7124799 0.0 10091293
22:00+18юв4863100 0.0 1009331
10 мая, пн
пн1001:00+17ююв3773100 0.0 1008364
04:00+10зсз111586100 1.7 1010729
07:00+9з91384100 5.0 1012826
10:00+10з91270100 5.2 1014876
13:00+12з91160100 0.3 10151468
16:00+13з71049100 1.2 10151726
19:00+13зюз684811 0.0 10161455
22:00+10ююз34621 0.0 101853
11 мая, вт
вт1101:00+9ююз48665 0.0 1018139
04:00+8юз34720 0.0 102071
07:00+10юз126680 0.0 1021138
10:00+15юв33445 0.0 10221065
13:00+19в553185 0.0 10211967
16:00+20всв6625100 0.0 10202400
19:00+19в5729100 0.0 1020686
22:00+15в354288 0.0 1020137
12 мая, ср
ср1201:00+12св335451 0.0 101933
04:00+11ссв22650 0.0 101926
07:00+13с22690 0.0 1019157
10:00+18с11510 0.0 1019688
13:00+22св23400 0.0 10181545
16:00+24всв33376 0.0 10181855
19:00+24всв23403 0.0 10171562
22:00+19ю476223 0.0 1018228
13 мая, чт
чт1301:00+17юв347432 0.0 101892
04:00+15юв34790 0.0 101874
07:00+17вюв236948 0.0 1018180
10:00+22в33470 0.0 1018790
13:00+27юв46375 0.0 10181509
16:00+30юв68293 0.0 10162036
19:00+27юв78341 0.0 1017862
22:00+22вюв49390 0.0 1018170